This is the latest recevied weather packets stored in our database for station/object SV9TNF-51. If no packets are shown the sender has not sent any weather packets the latest 10 day(s).
| Time | Temp. | Humidity | Pressure | Rain* | Wind** | Luminosity | Snow |
|---|---|---|---|---|---|---|---|
| 1788509077 | 31.67° C | 50% | 1011.9 hPa | 0 mm | 3.13 m/s, 331° | - | - |
| 1788508777 | 30.56° C | 52% | 1011.9 hPa | 0 mm | 4.02 m/s, 134° | - | - |
| 1788508494 | 30° C | 53% | 1011.9 hPa | 0 mm | 11.18 m/s, 350° | - | - |
| 1788508177 | 30.56° C | 52% | 1011.9 hPa | 0 mm | 4.02 m/s, 49° | - | - |
| 1788507877 | 30.56° C | 53% | 1011.9 hPa | 0 mm | 5.36 m/s, 111° | - | - |
| 1788507576 | 31.11° C | 52% | 1011.9 hPa | 0 mm | 2.24 m/s, 243° | - | - |
| 1788507277 | 31.11° C | 52% | 1011.9 hPa | 0 mm | 7.15 m/s, 84° | - | - |
| 1788506976 | 30.56° C | 51% | 1011.9 hPa | 0 mm | 3.58 m/s, 130° | - | - |
| 1788506676 | 31.67° C | 48% | 1011.5 hPa | 0 mm | 4.47 m/s, 119° | - | - |
| 1788506376 | 31.67° C | 49% | 1011.5 hPa | 0 mm | 1.34 m/s, 132° | - | - |
| 1788506076 | 30° C | 51% | 1011.5 hPa | 0 mm | 4.92 m/s, 330° | - | - |
| 1788505776 | 30.56° C | 50% | 1011.5 hPa | 0 mm | 8.49 m/s, 286° | - | - |
| 1788505476 | 30.56° C | 50% | 1011.5 hPa | 0 mm | 2.68 m/s, 141° | - | - |
| 1788505176 | 30° C | 51% | 1011.5 hPa | 0 mm | 0.45 m/s, 146° | - | - |
| 1788504875 | 30.56° C | 51% | 1011.5 hPa | 0 mm | 0.89 m/s, 116° | - | - |
| 1788504575 | 30.56° C | 49% | 1011.5 hPa | 0 mm | 4.92 m/s, 330° | - | - |
| 1788504275 | 30.56° C | 48% | 1011.5 hPa | 0 mm | 7.6 m/s, 296° | - | - |
| 1788503975 | 31.11° C | 47% | 1011.5 hPa | 0 mm | 0.45 m/s, 135° | - | - |
| 1788503675 | 30.56° C | 48% | 1011.5 hPa | 0 mm | 2.24 m/s, 128° | - | - |
| 1788503375 | 30.56° C | 47% | 1011.5 hPa | 0 mm | 2.68 m/s, 122° | - | - |
| 1788503075 | 29.44° C | 50% | 1011.2 hPa | 0 mm | 2.24 m/s, 131° | - | - |
| 1788502775 | 28.89° C | 50% | 1011.2 hPa | 0 mm | 2.68 m/s, 4° | - | - |
| 1788502475 | 29.44° C | 49% | 1011.2 hPa | 0 mm | 4.92 m/s, 145° | - | - |
| 1788502174 | 29.44° C | 48% | 1011.2 hPa | 0 mm | 0.45 m/s, 124° | - | - |
| 1788501875 | 28.89° C | 49% | 1011.2 hPa | 0 mm | 0.45 m/s, 205° | - | - |
* Rain latest hour (hover to see other rain measurements)
** Current wind speed in m/s (hover to see current wind gust speed)